Regional Weather Roundup
Issued by NWS Boston, MA

Current Version | Previous Version | Text Only | Print | Product List | Glossary Off
Versions: 1 2 3 4 5 6 7 8 9 10 11 12 13 14 15 16 17 18 19 20 21 22 23 24 25 26 27 28
000 ASUS41 KBOX 191410 RWRBOX REGIONAL WEATHER ROUNDUP NATIONAL WEATHER SERVICE TAUNTON MA 900 AM EST THU JAN 19 2017 NOTE: "FAIR" INDICATES FEW OR NO CLOUDS BELOW 12,000 FEET WITH NO SIGNIFICANT WEATHER AND/OR OBSTRUCTIONS TO VISIBILITY. MAZALL-191500- EASTERN MASSACHUSETTS CITY SKY/WX TMP DP RH WIND PRES REMARKS BOSTON MOSUNNY 35 33 92 CALM 30.01R BEVERLY CLOUDY 32 31 96 CALM 29.99S FOG LAWRENCE CLOUDY 33 30 88 CALM 30.01S FOG BEDFORD PTSUNNY 32 29 88 CALM 29.99S BLUE HILL N/A 31 31 100 W7 29.97R WCI 24 NORWOOD MOSUNNY 36 33 89 CALM 30.01R FOG MARSHFIELD MOSUNNY 36 34 93 CALM 30.00S FOG PLYMOUTH FOG 33 32 96 CALM 30.01R VSB 1/4 TAUNTON CLOUDY 34 32 92 CALM 30.00S FOG NEW BEDFORD CLOUDY 35 33 92 NW3 30.01R FOG $$ MAZALL-191500- CAPE COD AND THE ISLANDS CITY SKY/WX TMP DP RH WIND PRES REMARKS FALMOUTH FOG 34 34 100 MISG 30.01S VSB<1/4 HYANNIS NOT AVBL CHATHAM CLOUDY 40 38 93 VRB3 30.00S PROVINCETOWN CLOUDY 39 36 89 NW6 30.01S NANTUCKET CLOUDY 39 37 92 N9 30.00R MARTHAS VNYRD CLOUDY 37 36 96 NW3 30.00S FOG $$ MAZALL-191500- CENTRAL AND WESTERN MASSACHUSETTS CITY SKY/WX TMP DP RH WIND PRES REMARKS WORCESTER PTSUNNY 33 31 92 W7 29.96S WCI 27 FITCHBURG CLOUDY 34 32 92 CALM 29.99S FOG ORANGE CLOUDY 33 33 100 CALM 29.98S SPRINGFIELD CLOUDY 35 34 95 SE3 29.99S WESTFIELD CLOUDY 38 35 89 CALM 29.99S NORTH ADAMS CLOUDY 37 33 85 W6 30.00S PITTSFIELD CLOUDY 36 33 89 W14 29.98R WCI 27 $$ RIZALL-191500- RHODE ISLAND CITY SKY/WX TMP DP RH WIND PRES REMARKS PROVIDENCE MOSUNNY 38 35 89 CALM 30.01R NEWPORT SUNNY 37 35 92 W3 30.00S SMITHFIELD MOSUNNY 38 36 92 VRB3 29.99S WESTERLY CLOUDY 38 33 82 W3 30.02S $$ CTZALL-191500- CONNECTICUT CITY SKY/WX TMP DP RH WIND PRES REMARKS BRADLEY INTL PTSUNNY 36 35 96 SE6 30.01R WCI 31 HARTFORD CLOUDY 35 34 96 CALM 30.03R BRIDGEPORT NOT AVBL DANBURY CLOUDY 34 34 100 SE3 30.04R FOG GROTON PTSUNNY 38 35 89 VRB3 30.02R NEW HAVEN NOT AVBL CHESTER CLOUDY 37 36 93 VRB3 30.01S MERIDEN PTSUNNY 36 33 89 SE3 30.03S FOG WILLIMANTIC CLOUDY 36 35 96 CALM 30.02R FOG OXFORD FOG 36 30 80 CALM 30.03R VSB 3/4 $$ MEZ002-015-021-024-NHZ003-005-008-011-012-014-VTZ005-008-191500- NORTHERN NEW ENGLAND CITY SKY/WX TMP DP RH WIND PRES REMARKS PORTLAND ME CLOUDY 27 25 92 CALM 30.00F BANGOR ME LGT SNOW 24 22 91 CALM 29.98F FOG CONCORD NH CLOUDY 30 27 88 CALM 29.99S FOG MANCHESTER NH NOT AVBL NASHUA NH NOT AVBL PORTSMOUTH NH MOSUNNY 30 27 89 CALM 29.98F JAFFREY NH NOT AVBL KEENE NH NOT AVBL BURLINGTON VT PTSUNNY 37 34 89 SW5 30.00R MT. WASHINGTON BLWGSNOW 16 16 100 W54G60 N/A VSB 1/8 WCI -9 $$ NYZ052-076-191500- EASTERN NEW YORK CITY SKY/WX TMP DP RH WIND PRES REMARKS ALBANY CLOUDY 38 35 89 SW3 30.04R NEW YORK CITY NOT AVBL $$ ANZALL-191500- MARINE OBSERVATIONS STATION/POSITION TIME TEMP WIND PRES VSBY WAVE AIR SEA DIR/SP/G HT/PER (UTC) (F) (DEG/KT/KT) (MB) (MI) (FT/S) BOSTON BUOY 1250 36 44 280/ 4/ 6 1015.5 6/ 8 BUZZARDS BAY 1300 36 350/ 4/ 4 1016.5F NANTUCKET SOUND 1250 39 43 340/ 8/ 12 1015.7 2/ 5 MASS BAY-STELLWA 1304 35 44 290/ 4/ 8 1015.6R 1 7/8 6/ 8 ISLE OF SHOALS 1300 32 290/ 4/ 6 1015.8R S OF BLOCK IS 1325 46 N/A 6/11 $$ ......................KEY......................... SKY/WX - SKY CONDITION/PRESENT WEATHER TMP - TEMPERATURE IN FAHRENHEIT DWPT - DEWPOINT IN FAHRENHEIT RH - RELATIVE HUMIDITY IN PERCENT WIND - DIRECTION AND SPEED IN MPH PRES - MEAN SEA LEVEL PRESSURE IN INCHES OF HG WCI - WIND CHILL INDEX VSB - VISIBILITY IN MILES HX - HEAT INDEX TC - TEMPERATURE IN CELSIUS VRB - VARIABLE WIND DIRECTION N/A - NOT AVAILABLE

USA.gov is the U.S. government's official web portal to all federal, state and local government web resources and services.